[[{"header":{"parameterUnit":"m.s-1","parameterCategory":2,"la1":30.2992,"la2":30.254,"lo1":-89.0895,"lo2":-89.0443,"dy":0.0025,"dx":0.0025,"nx":19,"ny":19,"refTime":"2026-03-22T03:00:00:Z","depth":"0","parameterNumber":2,"parameterNumberName":"U-component_of_CURRENTS"},"data":[0,0,0,0.0508,0.051,0.0561,0.0561,0.0633,0.0634,0,0,0,0,0,0,0,0,0,0,0,0.0499,0.05,0.0508,0.051,0.0561,0.0561,0.0633,0.0634,0,0,0,0,0,0,0,0,0,0,0,0.0499,0.05,0.05,0.051,0.0561,0.0561,0.0633,0.0592,0,0,0,0,0,0,0,0,0,0,0.0541,0.0541,0.0499,0.05,0.051,0.0561,0.0561,0.059,0.0594,0.0613,0,0.0633,0,0.0634,0.064,0.064,0,0,0,0.0506,0.0537,0.0543,0.0501,0.0511,0.0561,0.0537,0.0592,0.0598,0.062,0.0634,0.0636,0.0636,0.064,0.064,0.0811,0.0812,0,0,0.0503,0.0514,0.0539,0.0546,0.054,0.0535,0.0538,0.0595,0.0613,0.0634,0.0638,0.0637,0.0641,0.0641,0.0809,0.0811,0,0,0,0.0497,0.0513,0.0517,0.0544,0.0552,0.0537,0.054,0.0611,0.061,0.0639,0.0638,0.0641,0.0642,0.0808,0.081,0.0936,0,0,0,0.0496,0.0509,0.0516,0.0524,0.0551,0.0583,0.0555,0.0606,0.0612,0.0637,0.0641,0.0643,0.0807,0.0809,0.093,0.101,0,0,0,0.0494,0.0509,0.0518,0.0524,0.0546,0.0582,0.0585,0.0607,0.0612,0.064,0.0643,0.0806,0.0809,0.0924,0.1,0.1164,0,0,0,0.0498,0.0551,0.0519,0.0592,0.0545,0.0604,0.0585,0.0623,0.0649,0.0641,0.0807,0.081,0.0922,0.0993,0.1156,0.1231,0.1273,0,0,0.0567,0.0559,0.0606,0.0579,0.0631,0.0596,0.0705,0.0719,0.0707,0.0784,0.0788,0.0932,0.0999,0.1162,0.1404,0.1442,0,0,0,0.0631,0.0655,0.0668,0.0698,0.0713,0.077,0.0769,0.0797,0.0881,0.0738,0.0958,0.0997,0.1096,0.1124,0.1155,0.1241,0.0824,0.0823,0.0823,0.0708,0.0721,0.0787,0.0808,0.085,0.0893,0.0975,0.1025,0.097,0.1039,0.1118,0.1355,0.1385,0.1409,0.1497,0.1125,0.1125,0.1126,0.1126,0.0804,0.0848,0.0875,0.0937,0.0983,0.1068,0.1195,0.1207,0.1387,0.1268,0.1358,0.1277,0.1451,0.1531,0.1135,0.1133,0.1132,0.1131,0.1131,0.0848,0.0869,0.0909,0.1,0.1107,0.1188,0.1364,0.1444,0.1526,0.1633,0.1688,0.1686,0.1745,0.1684,0.1685,0.1686,0.1687,0.1688,0.1689,0.0865,0.0907,0.0973,0.1068,0.114,0.1272,0.1471,0.1612,0.1825,0.1873,0.1873,0.186,0.1526,0.1491,0.1706,0.1703,0.1701,0.1699,0.1698,0.092,0.0927,0.103,0.11,0.126,0.1381,0.1549,0.185,0.204,0.2178,0.2263,0.2012,0.1996,0.197,0.1946,0.2267,0.2267,0.2267,0.2267,0.0943,0.0958,0.1088,0.1205,0.1338,0.1448,0.1665,0.1926,0.2307,0.2506,0.2547,0.2421,0.2393,0.2391,0.2355,0.2335,0.2748,0.2748,0.2749,0.0984,0.102,0.112,0.123,0.1374,0.1499,0.1657,0.1876,0.2461,0.2774,0.267,0.2649,0.2455,0.2405,0.2378,0.2321,0.2276,0,0]},{"header":{"parameterUnit":"m.s-1","parameterCategory":2,"la1":30.2992,"la2":30.254,"lo1":-89.0895,"lo2":-89.0443,"dy":0.0025,"dx":0.0025,"nx":19,"ny":19,"refTime":"2026-03-22T03:00:00:Z","depth":"0","parameterNumber":3,"parameterNumberName":"V-component_of_CURRENTS"},"data":[0,0,0,0.0417,0.0416,0.0422,0.0423,0.046,0.046,0,0,0,0,0,0,0,0,0,0,0,0.0433,0.0433,0.0417,0.0416,0.0422,0.0423,0.046,0.046,0,0,0,0,0,0,0,0,0,0,0,0.0433,0.0433,0.0433,0.0416,0.0422,0.0423,0.046,0.0455,0,0,0,0,0,0,0,0,0,0,0.0447,0.0453,0.0433,0.0433,0.0415,0.0422,0.0423,0.0454,0.0455,0.0457,0,0.0453,0,0.0437,0.0461,0.0461,0,0,0,0.0443,0.0453,0.0441,0.0433,0.0415,0.0422,0.0427,0.0455,0.0455,0.0458,0.0453,0.0454,0.0438,0.0461,0.0461,0.0619,0.0621,0,0,0.0442,0.0449,0.0441,0.0441,0.041,0.0426,0.0427,0.0455,0.0461,0.0453,0.0454,0.0438,0.0461,0.0461,0.0618,0.062,0,0,0,0.0423,0.0449,0.0438,0.0441,0.0428,0.0426,0.0426,0.0461,0.0453,0.0455,0.0439,0.0461,0.0462,0.0616,0.0618,0.0691,0,0,0,0.0424,0.0435,0.0437,0.0444,0.0427,0.0439,0.0431,0.0452,0.0453,0.0439,0.0461,0.0462,0.0614,0.0617,0.0685,0.0764,0,0,0,0.0434,0.0436,0.0432,0.0444,0.043,0.0438,0.0434,0.0452,0.0442,0.0461,0.0462,0.0613,0.0617,0.068,0.0754,0.0867,0,0,0,0.0449,0.0465,0.0433,0.0468,0.043,0.048,0.0434,0.0456,0.0475,0.0461,0.0614,0.0618,0.0678,0.0748,0.086,0.0953,0.0991,0,0,0.0481,0.0469,0.0497,0.0468,0.0513,0.0482,0.0583,0.0564,0.0546,0.0606,0.061,0.0687,0.0753,0.0865,0.1179,0.1211,0,0,0,0.0518,0.054,0.0548,0.0571,0.0579,0.0642,0.0624,0.0636,0.0691,0.0569,0.0747,0.0789,0.0855,0.0899,0.0926,0.0822,0.0636,0.0636,0.0635,0.0582,0.06,0.0659,0.069,0.073,0.0759,0.082,0.0852,0.0786,0.0836,0.0889,0.109,0.1138,0.1159,0.1051,0.0914,0.0914,0.0914,0.0914,0.0675,0.0728,0.0767,0.0825,0.0876,0.0962,0.1041,0.1018,0.1128,0.1033,0.1093,0.1027,0.1192,0.1066,0.092,0.0919,0.0918,0.0918,0.0917,0.0746,0.0771,0.0807,0.0908,0.1024,0.1094,0.1246,0.1259,0.125,0.1305,0.1369,0.1368,0.1222,0.1332,0.1333,0.1334,0.1334,0.1335,0.1336,0.0789,0.0829,0.0896,0.1001,0.1083,0.1225,0.1369,0.1452,0.1546,0.1522,0.1521,0.1314,0.1219,0.1162,0.1349,0.1347,0.1345,0.1344,0.1343,0.087,0.0865,0.0978,0.1051,0.1246,0.142,0.1529,0.1735,0.1813,0.1884,0.1641,0.1635,0.1635,0.1614,0.1569,0.1851,0.1851,0.1851,0.1851,0.0905,0.0917,0.1056,0.1193,0.1375,0.1526,0.1773,0.1945,0.1945,0.1905,0.1789,0.1667,0.1651,0.1642,0.162,0.1571,0.1847,0.1847,0.1847,0.095,0.0989,0.1102,0.1235,0.1444,0.1641,0.1875,0.2074,0.2019,0.1828,0.1632,0.1632,0.1423,0.1406,0.1359,0.1336,0.1244,0,0]}],[{"header":{"parameterUnit":"m.s-1","parameterCategory":2,"la1":30.2992,"la2":30.254,"lo1":-89.0895,"lo2":-89.0443,"dy":0.0025,"dx":0.0025,"nx":19,"ny":19,"refTime":"2026-03-22T03:00:00:Z","depth":"2","parameterNumber":2,"parameterNumberName":"U-component_of_CURRENTS"},"data":[0,0,0,-0.0545,-0.0545,-0.0503,-0.0503,-0.0486,-0.0486,0,0,0,0,0,0,0,0,0,0,0,-0.055,-0.0549,-0.0546,-0.0544,-0.0503,-0.0503,-0.0486,-0.0486,0,0,0,0,0,0,0,0,0,0,0,-0.055,-0.055,-0.0549,-0.0544,-0.0503,-0.0503,-0.0486,-0.0509,0,0,0,0,0,0,0,0,0,0,-0.0545,-0.0562,-0.055,-0.0549,-0.0544,-0.0503,-0.0503,-0.051,-0.0507,-0.0514,0,-0.0495,0,-0.0493,-0.0485,-0.0485,0,0,0,-0.0547,-0.0564,-0.0534,-0.0549,-0.0544,-0.0503,-0.0523,-0.0508,-0.0506,-0.0511,-0.0494,-0.0494,-0.0493,-0.0485,-0.0485,-0.0429,-0.0429,0,0,-0.055,-0.0565,-0.0536,-0.0532,-0.0517,-0.0524,-0.0521,-0.0506,-0.0509,-0.0494,-0.0493,-0.0493,-0.0485,-0.0485,-0.043,-0.0429,0,0,0,-0.0554,-0.0566,-0.0537,-0.0533,-0.0524,-0.0523,-0.052,-0.051,-0.0494,-0.0493,-0.0492,-0.0485,-0.0485,-0.043,-0.0429,-0.0421,0,0,0,-0.0556,-0.0568,-0.0537,-0.0549,-0.0524,-0.0518,-0.0524,-0.0495,-0.0493,-0.0493,-0.0485,-0.0485,-0.0431,-0.043,-0.0422,-0.0395,0,0,0,-0.0555,-0.057,-0.0555,-0.055,-0.0529,-0.0517,-0.0501,-0.0494,-0.0493,-0.0485,-0.0485,-0.0431,-0.043,-0.0424,-0.0398,-0.0315,0,0,0,-0.0586,-0.0552,-0.0555,-0.0515,-0.0529,-0.0473,-0.0501,-0.0475,-0.0463,-0.0485,-0.0431,-0.043,-0.0424,-0.04,-0.0318,-0.0243,-0.0225,0,0,-0.0556,-0.0549,-0.052,-0.0522,-0.0464,-0.048,-0.0439,-0.0442,-0.0447,-0.0441,-0.0439,-0.0422,-0.0398,-0.0316,-0.0169,-0.0152,0,0,0,-0.0519,-0.0501,-0.048,-0.0452,-0.0417,-0.0411,-0.0412,-0.041,-0.0404,-0.0434,-0.0398,-0.0382,-0.0331,-0.0291,-0.0278,-0.0423,-0.0424,-0.0424,-0.0424,-0.0519,-0.0486,-0.0445,-0.0408,-0.0382,-0.0364,-0.035,-0.0351,-0.0367,-0.0359,-0.0359,-0.0265,-0.0224,-0.0213,-0.0351,-0.0351,-0.0351,-0.0351,-0.0351,-0.0485,-0.0467,-0.0434,-0.039,-0.0373,-0.0351,-0.0317,-0.0322,-0.0271,-0.0317,-0.0268,-0.0264,-0.0197,-0.035,-0.035,-0.035,-0.0351,-0.0351,-0.0351,-0.0509,-0.0495,-0.0468,-0.0415,-0.0382,-0.0349,-0.0288,-0.0266,-0.0243,-0.0207,-0.0116,-0.0116,-0.024,-0.0168,-0.0167,-0.0167,-0.0167,-0.0166,-0.0166,-0.0555,-0.052,-0.0487,-0.0433,-0.0403,-0.035,-0.0259,-0.0205,-0.0097,-0.0066,-0.0065,-0.0202,-0.0208,-0.0226,-0.0158,-0.016,-0.0161,-0.0161,-0.0162,-0.0574,-0.0563,-0.0505,-0.0471,-0.038,-0.0295,-0.0221,-0.0043,0.0037,0.0112,0.0029,0.0021,0.0043,0.0032,0.0021,0.0149,0.0149,0.0149,0.0149,-0.0598,-0.0583,-0.0494,-0.0425,-0.0353,-0.0263,-0.0071,0.0104,0.0206,0.025,0.0245,0.0192,0.0177,0.0202,0.0187,0.0177,0.0347,0.0347,0.0347,-0.0598,-0.0567,-0.0499,-0.0414,-0.0328,-0.0214,0.001,0.0286,0.0407,0.0351,0.0237,0.017,0.0075,0.006,0.0081,0.0064,0.0041,0,0]},{"header":{"parameterUnit":"m.s-1","parameterCategory":2,"la1":30.2992,"la2":30.254,"lo1":-89.0895,"lo2":-89.0443,"dy":0.0025,"dx":0.0025,"nx":19,"ny":19,"refTime":"2026-03-22T03:00:00:Z","depth":"2","parameterNumber":3,"parameterNumberName":"V-component_of_CURRENTS"},"data":[0,0,0,-0.0596,-0.0594,-0.0464,-0.0463,-0.0313,-0.0312,0,0,0,0,0,0,0,0,0,0,0,-0.0632,-0.0631,-0.0596,-0.0594,-0.0464,-0.0463,-0.0313,-0.0312,0,0,0,0,0,0,0,0,0,0,0,-0.0633,-0.0631,-0.063,-0.0593,-0.0464,-0.0463,-0.0314,-0.0405,0,0,0,0,0,0,0,0,0,0,-0.0527,-0.0561,-0.0632,-0.063,-0.0593,-0.0464,-0.0463,-0.0409,-0.0399,-0.038,0,-0.0358,0,-0.0341,-0.0303,-0.0303,0,0,0,-0.0581,-0.0569,-0.0539,-0.063,-0.0592,-0.0464,-0.0519,-0.0403,-0.0392,-0.0368,-0.0356,-0.035,-0.0338,-0.0303,-0.0302,-0.0281,-0.0282,0,0,-0.0588,-0.0603,-0.0547,-0.0533,-0.0554,-0.0523,-0.0515,-0.0396,-0.0381,-0.0355,-0.0347,-0.0336,-0.0302,-0.0301,-0.0281,-0.0282,0,0,0,-0.0617,-0.0608,-0.058,-0.0539,-0.0519,-0.052,-0.051,-0.0386,-0.0377,-0.0345,-0.0334,-0.0301,-0.0299,-0.028,-0.0281,-0.0341,0,0,0,-0.0621,-0.0626,-0.0583,-0.0589,-0.0521,-0.0449,-0.0503,-0.0385,-0.0372,-0.0335,-0.0301,-0.0298,-0.0279,-0.0281,-0.0337,-0.0322,0,0,0,-0.0639,-0.0628,-0.0613,-0.0591,-0.0542,-0.045,-0.0434,-0.0382,-0.0366,-0.0303,-0.0298,-0.0279,-0.028,-0.0334,-0.0318,-0.0299,0,0,0,-0.0658,-0.0626,-0.0613,-0.058,-0.0543,-0.0501,-0.0434,-0.038,-0.033,-0.03,-0.0279,-0.0281,-0.0333,-0.0316,-0.0297,-0.0313,-0.0321,0,0,-0.0631,-0.0622,-0.0607,-0.0593,-0.0579,-0.0519,-0.0505,-0.0404,-0.0356,-0.0315,-0.0314,-0.0338,-0.0318,-0.0298,-0.0414,-0.0418,0,0,0,-0.061,-0.0603,-0.0596,-0.0581,-0.0552,-0.0529,-0.0456,-0.0441,-0.0396,-0.0337,-0.0357,-0.0342,-0.0327,-0.0336,-0.034,-0.0289,-0.0289,-0.0289,-0.0289,-0.0593,-0.0597,-0.0589,-0.0589,-0.0568,-0.0537,-0.0517,-0.0485,-0.0442,-0.045,-0.0406,-0.0449,-0.0464,-0.0466,-0.0446,-0.0446,-0.0447,-0.0447,-0.0447,-0.0587,-0.0592,-0.06,-0.0588,-0.0584,-0.0564,-0.0552,-0.0533,-0.051,-0.0489,-0.0473,-0.0419,-0.0474,-0.0452,-0.0451,-0.045,-0.045,-0.045,-0.0449,-0.0603,-0.0605,-0.0594,-0.0589,-0.0574,-0.0555,-0.0535,-0.0528,-0.0522,-0.0522,-0.048,-0.0479,-0.0435,-0.0501,-0.05,-0.05,-0.05,-0.05,-0.05,-0.0615,-0.0612,-0.0595,-0.0581,-0.0564,-0.053,-0.0502,-0.0497,-0.0502,-0.0513,-0.0514,-0.0465,-0.0463,-0.0437,-0.0498,-0.0499,-0.0499,-0.0499,-0.0499,-0.063,-0.0611,-0.0595,-0.0576,-0.0541,-0.051,-0.0485,-0.0473,-0.0469,-0.0484,-0.051,-0.051,-0.0472,-0.0469,-0.0442,-0.0501,-0.0501,-0.0501,-0.0501,-0.063,-0.0625,-0.0583,-0.0562,-0.0542,-0.0506,-0.0449,-0.0419,-0.0449,-0.0468,-0.0469,-0.0488,-0.0489,-0.045,-0.0448,-0.042,-0.0473,-0.0472,-0.0472,-0.063,-0.0616,-0.0584,-0.056,-0.0544,-0.05,-0.0417,-0.0292,-0.0326,-0.0467,-0.0425,-0.0506,-0.0539,-0.0538,-0.0481,-0.0477,-0.0433,0,0]}],[{"header":{"parameterUnit":"m.s-1","parameterCategory":2,"la1":30.2992,"la2":30.254,"lo1":-89.0895,"lo2":-89.0443,"dy":0.0025,"dx":0.0025,"nx":19,"ny":19,"refTime":"2026-03-22T03:00:00:Z","depth":"4","parameterNumber":2,"parameterNumberName":"U-component_of_CURRENTS"},"data":[0,0,0,-0.0152,-0.0153,-0.0172,-0.0172,-0.0196,-0.0196,0,0,0,0,0,0,0,0,0,0,0,-0.0148,-0.0148,-0.0152,-0.0153,-0.0172,-0.0172,-0.0196,-0.0196,0,0,0,0,0,0,0,0,0,0,0,-0.0148,-0.0148,-0.0148,-0.0153,-0.0172,-0.0172,-0.0196,-0.018,0,0,0,0,0,0,0,0,0,0,-0.0161,-0.0153,-0.0148,-0.0148,-0.0153,-0.0172,-0.0172,-0.0179,-0.0181,-0.019,0,-0.02,0,-0.0201,-0.0199,-0.0199,0,0,0,-0.0147,-0.0152,-0.0164,-0.0148,-0.0154,-0.0172,-0.0162,-0.018,-0.0182,-0.0192,-0.02,-0.0201,-0.0202,-0.0199,-0.0199,-0.0229,-0.0229,0,0,-0.0146,-0.0143,-0.0163,-0.0166,-0.0168,-0.0161,-0.0162,-0.0181,-0.0184,-0.02,-0.0201,-0.0202,-0.0199,-0.0199,-0.0229,-0.0229,0,0,0,-0.0147,-0.0142,-0.0153,-0.0165,-0.017,-0.0162,-0.0163,-0.0182,-0.0189,-0.0202,-0.0202,-0.0199,-0.02,-0.0229,-0.0229,-0.0226,0,0,0,-0.0146,-0.0143,-0.0153,-0.015,-0.017,-0.0175,-0.0163,-0.0187,-0.0189,-0.0202,-0.0199,-0.02,-0.0229,-0.0229,-0.0226,-0.021,0,0,0,-0.0145,-0.0143,-0.0149,-0.015,-0.0161,-0.0175,-0.0181,-0.0188,-0.019,-0.0199,-0.02,-0.0229,-0.0229,-0.0226,-0.0211,-0.0184,0,0,0,-0.0134,-0.0144,-0.0149,-0.0162,-0.0161,-0.0178,-0.0181,-0.019,-0.0197,-0.0199,-0.0229,-0.0229,-0.0226,-0.0211,-0.0185,-0.0133,0,0,0,-0.0139,-0.0144,-0.0152,-0.0158,-0.0176,-0.0174,-0.0186,-0.0196,-0.0203,-0.0222,-0.0222,-0.0226,-0.0211,-0.0184,-0.0146,0,0,0,0,-0.0149,-0.0156,-0.0163,-0.0175,-0.0187,-0.019,-0.0199,-0.0205,-0.0218,-0.021,-0.0231,-0.0221,-0.0204,-0.0177,-0.023,-0.023,-0.023,-0.023,-0.023,-0.0152,-0.016,-0.0171,-0.0183,-0.0192,-0.0201,-0.0203,-0.0212,-0.0224,-0.023,-0.0223,-0.0205,-0.0178,-0.0235,-0.0235,-0.0235,-0.0235,-0.0235,-0.0235,-0.0159,-0.0164,-0.0172,-0.0183,-0.019,-0.0198,-0.0208,-0.0213,-0.021,-0.0227,-0.0211,-0.0182,-0.0235,-0.0235,-0.0235,-0.0235,-0.0235,-0.0235,-0.0235,-0.0161,-0.0162,-0.0169,-0.0177,-0.0183,-0.0191,-0.0179,-0.0189,-0.0195,-0.0186,-0.0139,-0.0191,-0.0184,-0.0173,-0.0173,-0.0173,-0.0172,-0.0172,-0.0172,-0.0157,-0.0163,-0.0165,-0.0172,-0.0172,-0.0167,-0.0158,-0.0139,-0.0138,-0.0116,-0.0173,-0.0183,-0.0185,-0.018,-0.0169,-0.017,-0.017,-0.0171,-0.0171,-0.0156,-0.0161,-0.0161,-0.0162,-0.0152,-0.0142,-0.0135,-0.007,-0.0041,-0.001,-0.0076,-0.0082,-0.007,-0.0074,-0.0065,-0.002,-0.0019,-0.0018,0,-0.0155,-0.0158,-0.0154,-0.0145,-0.0124,-0.0124,-0.0059,-0.0027,-0.0011,-0.0016,-0.0058,-0.0137,-0.014,-0.0133,-0.0135,-0.0127,0,0,0,-0.0153,-0.0155,-0.0145,-0.0137,-0.011,-0.0059,-0.0039,-0.0007,-0.0026,0.0048,0.0001,-0.0004,-0.0096,-0.0161,-0.0155,-0.0158,-0.0149,0,0]},{"header":{"parameterUnit":"m.s-1","parameterCategory":2,"la1":30.2992,"la2":30.254,"lo1":-89.0895,"lo2":-89.0443,"dy":0.0025,"dx":0.0025,"nx":19,"ny":19,"refTime":"2026-03-22T03:00:00:Z","depth":"4","parameterNumber":3,"parameterNumberName":"V-component_of_CURRENTS"},"data":[0,0,0,-0.0437,-0.0437,-0.0476,-0.0476,-0.0507,-0.0508,0,0,0,0,0,0,0,0,0,0,0,-0.0426,-0.0426,-0.0437,-0.0438,-0.0476,-0.0476,-0.0507,-0.0508,0,0,0,0,0,0,0,0,0,0,0,-0.0426,-0.0426,-0.0427,-0.0438,-0.0476,-0.0476,-0.0507,-0.0483,0,0,0,0,0,0,0,0,0,0,-0.0448,-0.0444,-0.0426,-0.0427,-0.0438,-0.0476,-0.0476,-0.0482,-0.0484,-0.0485,0,-0.0494,0,-0.05,-0.0509,-0.0509,0,0,0,-0.0438,-0.0442,-0.0448,-0.0427,-0.0438,-0.0476,-0.0459,-0.0483,-0.0486,-0.0488,-0.0495,-0.0496,-0.05,-0.0509,-0.051,-0.054,-0.0541,0,0,-0.0436,-0.0436,-0.0446,-0.045,-0.0452,-0.0458,-0.046,-0.0485,-0.0492,-0.0495,-0.0497,-0.0501,-0.051,-0.051,-0.054,-0.054,0,0,0,-0.043,-0.0435,-0.0441,-0.0449,-0.0456,-0.0459,-0.0461,-0.0491,-0.0492,-0.0497,-0.0501,-0.051,-0.051,-0.054,-0.054,-0.0574,0,0,0,-0.0428,-0.0431,-0.044,-0.0441,-0.0456,-0.0478,-0.0467,-0.049,-0.0493,-0.0501,-0.051,-0.051,-0.054,-0.054,-0.0573,-0.0586,0,0,0,-0.0424,-0.043,-0.0435,-0.0441,-0.0456,-0.0477,-0.048,-0.0491,-0.0496,-0.0509,-0.051,-0.054,-0.054,-0.0572,-0.0584,-0.0576,0,0,0,-0.0421,-0.0439,-0.0435,-0.0457,-0.0456,-0.0486,-0.048,-0.0503,-0.0516,-0.051,-0.054,-0.054,-0.0571,-0.0583,-0.0575,-0.0494,0,0,0,-0.0441,-0.0441,-0.0453,-0.0451,-0.0482,-0.048,-0.0515,-0.0526,-0.052,-0.053,-0.0531,-0.0573,-0.0584,-0.0575,-0.0517,0,0,0,0,-0.0458,-0.0468,-0.0477,-0.0494,-0.0509,-0.0528,-0.0539,-0.0542,-0.0556,-0.0529,-0.0571,-0.0577,-0.057,-0.0521,-0.0542,-0.0542,-0.0542,-0.0542,-0.0542,-0.0489,-0.0493,-0.0517,-0.0527,-0.0545,-0.0564,-0.0578,-0.0582,-0.0578,-0.0587,-0.0603,-0.0618,-0.0568,-0.0602,-0.0602,-0.0602,-0.0602,-0.0602,-0.0602,-0.0517,-0.0529,-0.0539,-0.0565,-0.0581,-0.061,-0.062,-0.0622,-0.0635,-0.0628,-0.062,-0.0559,-0.0606,-0.0605,-0.0604,-0.0604,-0.0604,-0.0604,-0.0603,-0.0536,-0.054,-0.0559,-0.0588,-0.0618,-0.0636,-0.0639,-0.0657,-0.0661,-0.0669,-0.0594,-0.0632,-0.0629,-0.066,-0.066,-0.066,-0.066,-0.066,-0.066,-0.0543,-0.0558,-0.0578,-0.0606,-0.0624,-0.0641,-0.0654,-0.0647,-0.0657,-0.0619,-0.0674,-0.0637,-0.0635,-0.0632,-0.0661,-0.066,-0.066,-0.066,-0.066,-0.0552,-0.056,-0.0581,-0.0598,-0.0622,-0.062,-0.0633,-0.0593,-0.0581,-0.0558,-0.058,-0.0584,-0.0558,-0.0558,-0.0551,-0.0557,-0.0556,-0.0555,0,-0.0551,-0.0557,-0.0575,-0.0588,-0.0592,-0.0603,-0.0547,-0.0537,-0.0542,-0.0534,-0.0605,-0.0633,-0.0634,-0.0609,-0.0607,-0.06,0,0,0,-0.0545,-0.0552,-0.0559,-0.0577,-0.0578,-0.0539,-0.0531,-0.0507,-0.0539,-0.049,-0.0531,-0.0537,-0.0605,-0.0662,-0.0631,-0.0629,-0.0621,0,0]}]]